Dati Storici

Data ora Umidita' aria (%) Temperatura aria (°C) Rad globale (W/m²) Gonioanemometro (°) Tacoanemometro (m/s) Pioggia (mm)
14-10-2012 04:00 82.2 % 11.664 1.41 326.337 1.109 0
14-10-2012 03:50 83 % 11.345 1.282 316.613 0.279 0
14-10-2012 03:40 81.5 % 11.106 0.974 325.755 0.261 0
14-10-2012 03:30 80.8 % 11.558 1.526 84.61 0.406 0
14-10-2012 03:20 79.5 % 11.921 1.512 342.431 0.358 0
14-10-2012 03:10 79 % 12.025 1.897 295.051 0.145 0
14-10-2012 03:00 78.8 % 12.089 1.589 321.09 0.809 0
14-10-2012 02:50 78.6 % 12.19 1.63 297.558 0.674 0
14-10-2012 02:40 78.7 % 12.318 2.477 297.327 0.98 0
14-10-2012 02:30 79.2 % 12.357 3.105 337.007 0.356 0
14-10-2012 02:20 79.8 % 12.282 3.246 290.288 0.822 0
14-10-2012 02:10 80 % 12.26 2.49 306.287 0.985 0
14-10-2012 02:00 80 % 12.379 2.734 334.264 1.165 0
14-10-2012 01:50 80 % 12.512 3.22 1.28 0.68 0
14-10-2012 01:40 80.4 % 12.434 2.4 303.089 0.471 0
14-10-2012 01:30 80.8 % 12.473 2.413 330.453 1.896 0
14-10-2012 01:20 81.8 % 12.411 2.348 3.808 2.518 0
14-10-2012 01:10 81.9 % 12.361 2.169 2.978 1.156 0
14-10-2012 01:00 82 % 12.458 2.156 183.665 1.12 0
14-10-2012 00:50 82.1 % 12.44 1.951 330.415 1.061 0

I dati sono presentati in modo automatico a scopo informativo. In seguito a verifica i dati possono subire modifiche o essere invalidati e non riportati negli archivi definitivi.